{"data":{"norad_id":66985,"epoch":"2026-09-20T08:13:48.541152Z","epoch_age_seconds":94846,"freshness":"FRESH","line1":"1 66985U 25288AC  26263.34292293  .00017810  00000+0  65490-3 0  9995","line2":"2 66985  42.9993   4.4384 0001398 208.6521 151.4254 15.27593140 45053","mean_motion":15.2759314,"eccentricity":0.0001398,"inclination_deg":42.9993,"raan_deg":4.4384,"arg_perigee_deg":208.6521,"mean_anomaly_deg":151.4254,"bstar":0.0006549,"rev_number":4505,"period_min":94.265937853059,"perigee_km":482.05056211889,"apogee_km":483.96893875031,"semimajor_km":6861.1467504346,"source":"CELESTRAK","updated_at":"2026-09-21T09:00:36.067457Z"}}